Location: Beaurecueil
(43.5122°N, 5.5450°E)
Time: 00:14:54
(UTC+00:00)

Cosmos 1844 Rocket - Pass Details

Date: 18 September 2020
Orbit: 823 x 846 km, 71.0° (Epoch: 26 October)

Event Time Altitude Azimuth Distance (km) Brightness Sun altitude
Rises 19:37:09 0° 198° (SSW) 3,343 5.8 -21.1°
Reaches altitude 10° 19:39:33 10° 197° (SSW) 2,415 5.0 -21.5°
Maximum altitude 19:45:05 77° 113° (ESE) 850 2.5 -22.4°
Drops below altitude 10° 19:50:40 10° 28° (NNE) 2,440 5.1 -23.3°
Sets 19:53:07 0° 27° (NNE) 3,381 5.8 -23.7°
